Flag for Germany Weather past 2 weeks in Schweinfurt, Bavaria, Germany

Now
38 °F

Partly sunny.


Feels Like: 31 °F
Forecast: 34 / 43 °F
Wind: 10 mph from Northwest

Location: Wuerzburg

Current Time: Apr 1, 2015 at 8:00:39 AM

Latest Report: Apr 1, 2015 at 7:00 AM


Visibility: 37 mi

Pressure: 29.95 "Hg

Humidity: 72%

Dew point: 30 °F

Location of SchweinfurtLocation

Historic Weather in Schweinfurt — Graph

°F

Schweinfurt temperature yesterday

Maximum temperature yesterday: 53 °F (at 9:00 AM)
Minimum temperature yesterday: 39 °F (at 12:00 AM)
Average temperature yesterday: 46 °F

Past Weeks' High & Low Weather Summary

 TemperatureHumidityPressure
High66 °F (Mar 25, 4:00 PM)100% (Mar 24, 7:00 AM)30.32 "Hg (Mar 24, 7:00 AM)
Low30 °F (Mar 24, 7:00 AM)26% (Mar 20, 3:00 PM)29.38 "Hg (Mar 31, 8:00 AM)
Average45 °F69%29.98 "Hg
* Reported Mar 17 6:00 AM — Apr 1 7:00 AM, Schweinfurt, Weather by CustomWeather, © 2015

Note: Actual official high and low records may vary slightly from our data, if they occured in-between our weather recording intervals... More about our weather records

Advertising

Schweinfurt weather history for previous 24 hours

 ConditionsComfort  
Time TempWeatherWind HumidityBarometerVisibility
7:00 AM
Wed, Apr 1
38 °FPartly sunny.10 mph72%29.95 "Hg37 mi
6:00 AM39 °FPassing clouds.12 mph72%29.93 "Hg31 mi
5:00 AM39 °FOvercast.14 mph73%29.90 "Hg31 mi
4:00 AM38 °FSprinkles. Overcast.7 mph79%29.90 "Hg28 mi
3:00 AM39 °FOvercast.12 mph73%29.90 "Hg31 mi
2:00 AM39 °FOvercast.12 mph75%29.88 "Hg31 mi
1:00 AM38 °FOvercast.10 mph85%29.87 "Hg31 mi
12:00 AM36 °FThunderstorms. Overcast.9 mph88%29.86 "Hg31 mi
11:00 PM
Tue, Mar 31
44 °FOvercast.13 mph70%29.80 "Hg31 mi
10:00 PM44 °FPassing clouds.10 mph73%29.81 "Hg34 mi
9:00 PM45 °FPassing clouds.9 mph70%29.80 "Hg34 mi
8:00 PM47 °FPassing clouds.13 mph48%29.77 "Hg34 mi
7:00 PM48 °FPartly sunny.10 mph60%29.73 "Hg43 mi
6:00 PM48 °FPartly sunny.12 mph66%29.69 "Hg37 mi
5:00 PM48 °FPartly sunny.14 mph67%29.65 "Hg25 mi
4:00 PM46 °FSprinkles. Overcast.14 mph76%29.63 "Hg17 mi
3:00 PM45 °FThundershowers. Overcast.10 mph85%29.59 "Hg14 mi
2:00 PM52 °FPartly sunny.14 mph70%29.54 "Hg25 mi
1:00 PM53 °FOvercast.22 mph72%29.47 "Hg37 mi
12:00 PM49 °FSprinkles. Low clouds.10 mph96%29.47 "Hg6 mi
11:00 AM51 °FSprinkles. Overcast.18 mph84%29.44 "Hg31 mi
10:00 AM53 °FOvercast.17 mph79%29.41 "Hg40 mi
9:00 AM53 °FOvercast.16 mph73%29.38 "Hg34 mi
8:00 AM53 °FOvercast.15 mph74%29.38 "Hg40 mi
Weather by CustomWeather, © 2015

See weather overviewHow to use our weather pages